Location: Baumgartsau
(48.4586°N, 14.0864°E)
Time: 23:31:24
(UTC+00:00)

Cosmos 2058 Rocket - Pass Details

Date: 09 April 2020
Orbit: 610 x 640 km, 82.5° (Epoch: 26 May)

Event Time Altitude Azimuth Distance (km) Brightness Sun altitude
Rises 18:53:02 0° 183° (S) 2,932 6.3 -11.2°
Reaches altitude 10° 18:55:16 10° 182° (S) 2,028 5.5 -11.5°
Maximum altitude 18:59:46 76° 97° (E) 665 3.0 -12.2°
Drops below altitude 10° 19:04:17 10° 13° (NNE) 2,037 5.9 -12.9°
Sets 19:06:32 0° 12° (NNE) 2,947 6.8 -13.2°
